Weather History for Manistee, MI

Change the Weather History Date:

Sunday, May 25, 2014

  Actual Average Record
Temperature  
Mean Temperature 58 °F -  
Max Temperature 75 °F 68 °F 84 °F (1965)
Min Temperature 41 °F 46 °F 23 °F (1992)
Degree Days  
Heating Degree Days 7    
Growing Degree Days 8 (Base 50)    
Moisture  
Dew Point 41 °F    
Average Humidity 56    
Maximum Humidity 93    
Minimum Humidity 24    
Precipitation  
Precipitation 0.00 in - - ()
Sea Level Pressure  
Sea Level Pressure 30.12 in    
Wind  
Wind Speed 4 mph (WSW)    
Max Wind Speed 15 mph    
Max Gust Speed 22 mph    
Visibility 10 miles    
Events      
Averages and records for this station are not official NWS values.
T = Trace of Precipitation, MM = Missing Value Source: NWS Daily Summary

Daily Weather History Graph

Daily Weather History Graph

Search for Another Location

Airport:

Trip Planner

Search our weather history database for the weather conditions in past years. The results will help you decide how hot, cold, wet, or windy it might be!

Date:

Astronomy

May. 25, 2014 Rise Set
Actual Time 6:08 AM EDT 9:15 PM EDT
Civil Twilight 5:33 AM EDT 9:50 PM EDT
Nautical Twilight 4:49 AM EDT 10:35 PM EDT
Astronomical Twilight 3:55 AM EDT 11:30 PM EDT
Moon 4:20 AM EDT (5/25) 6:09 PM EDT (5/25)
Length of Visible Light 16h 16m
Length of Day
15h 06m
Waning Crescent, 10% of the Moon is Illuminated
May 25
Waning Crescent
May 28
New
Jun 5
First Quarter
Jun 13
Full
Jun 19
Last Quarter

Hourly Weather History & Observations

Time (EDT) Temp. Windchill Dew Point Humidity Pressure Visibility Wind Dir Wind Speed Gust Speed Precip Events Conditions
12:15 AM 48.2 °F - 39.2 °F 71% 30.15 in 10.0 mi East 4.6 mph - N/A   Clear
12:35 AM 46.4 °F 44.3 °F 39.2 °F 76% 30.14 in 10.0 mi East 4.6 mph - N/A   Clear
12:55 AM 46.4 °F - 39.2 °F 76% 30.14 in 10.0 mi Calm Calm - N/A   Clear
1:15 AM 46.4 °F - 41.0 °F 81% 30.14 in 10.0 mi Calm Calm - N/A   Clear
1:35 AM 46.4 °F 45.2 °F 39.2 °F 76% 30.14 in 10.0 mi East 3.5 mph - N/A   Clear
2:15 AM 44.6 °F 43.1 °F 39.2 °F 81% 30.14 in 10.0 mi East 3.5 mph - N/A   Clear
2:35 AM 44.6 °F - 41.0 °F 87% 30.13 in 10.0 mi Calm Calm - N/A   Clear
2:55 AM 46.4 °F - 41.0 °F 81% 30.14 in 10.0 mi Calm Calm - N/A   Clear
3:15 AM 44.6 °F 41.4 °F 39.2 °F 81% 30.14 in 10.0 mi WNW 5.8 mph - N/A   Clear
3:35 AM 44.6 °F 43.1 °F 39.2 °F 81% 30.15 in 10.0 mi WNW 3.5 mph - N/A   Clear
3:55 AM 44.6 °F - 39.2 °F 81% 30.15 in 10.0 mi Calm Calm - N/A   Clear
4:15 AM 42.8 °F - 39.2 °F 87% 30.15 in 10.0 mi Calm Calm - N/A   Clear
4:35 AM 42.8 °F - 39.2 °F 87% 30.15 in 10.0 mi Calm Calm - N/A   Clear
4:55 AM 42.8 °F - 39.2 °F 87% 30.16 in 10.0 mi Calm Calm - N/A   Clear
5:15 AM 42.8 °F - 39.2 °F 87% 30.16 in 10.0 mi Calm Calm - N/A   Clear
5:35 AM 42.8 °F - 39.2 °F 87% 30.16 in 10.0 mi Calm Calm - N/A   Clear
5:55 AM 42.8 °F - 39.2 °F 87% 30.16 in 10.0 mi Calm Calm - N/A   Clear
6:15 AM 41.0 °F - 37.4 °F 87% 30.17 in 10.0 mi Calm Calm - N/A   Clear
6:35 AM 41.0 °F - 37.4 °F 87% 30.17 in 10.0 mi Calm Calm - N/A   Clear
6:55 AM 41.0 °F 39.0 °F 37.4 °F 87% 30.17 in 10.0 mi East 3.5 mph - N/A   Clear
7:15 AM 44.6 °F 43.1 °F 41.0 °F 87% 30.17 in 10.0 mi East 3.5 mph - N/A   Clear
7:35 AM 46.4 °F - 44.6 °F 93% 30.18 in 10.0 mi Calm Calm - N/A   Clear
7:55 AM 48.2 °F - 44.6 °F 87% 30.17 in 10.0 mi East 4.6 mph - N/A   Clear
8:15 AM 50.0 °F - 44.6 °F 82% 30.17 in 10.0 mi East 4.6 mph - N/A   Clear
8:35 AM 53.6 °F - 44.6 °F 72% 30.17 in 10.0 mi Calm Calm - N/A   Clear
8:55 AM 55.4 °F - 44.6 °F 67% 30.17 in 10.0 mi Calm Calm - N/A   Clear
9:15 AM 59.0 °F - 44.6 °F 59% 30.17 in 10.0 mi Calm Calm - N/A   Clear
9:35 AM 62.6 °F - 42.8 °F 48% 30.17 in 10.0 mi South 3.5 mph - N/A   Clear
9:55 AM 64.4 °F - 42.8 °F 45% 30.16 in 10.0 mi SSW 3.5 mph - N/A   Clear
10:15 AM 66.2 °F - 42.8 °F 43% 30.16 in 10.0 mi WSW 3.5 mph - N/A   Clear
11:15 AM 69.8 °F - 42.8 °F 38% 30.15 in 10.0 mi West 6.9 mph - N/A   Clear
11:35 AM 69.8 °F - 44.6 °F 40% 30.15 in 9.0 mi WNW 8.1 mph - N/A   Clear
11:55 AM 69.8 °F - 42.8 °F 38% 30.15 in 10.0 mi West 12.7 mph - N/A   Clear
12:15 PM 68.0 °F - 42.8 °F 40% 30.15 in 10.0 mi West 12.7 mph 16.1 mph N/A   Clear
12:35 PM 68.0 °F - 42.8 °F 40% 30.15 in 10.0 mi West 12.7 mph - N/A   Clear
12:55 PM 68.0 °F - 42.8 °F 40% 30.15 in 10.0 mi West 11.5 mph - N/A   Clear
1:15 PM 68.0 °F - 42.8 °F 40% 30.14 in 10.0 mi West 15.0 mph - N/A   Clear
1:35 PM 69.8 °F - 42.8 °F 38% 30.14 in 10.0 mi West 15.0 mph - N/A   Clear
1:55 PM 71.6 °F - 44.6 °F 38% 30.13 in 10.0 mi West 12.7 mph - N/A   Clear
2:15 PM 71.6 °F - 42.8 °F 35% 30.13 in 10.0 mi West 10.4 mph - N/A   Clear
2:35 PM 71.6 °F - 42.8 °F 35% 30.13 in 10.0 mi West 13.8 mph - N/A   Clear
2:55 PM 71.6 °F - 42.8 °F 35% 30.12 in 10.0 mi West 13.8 mph - N/A   Clear
3:15 PM 71.6 °F - 42.8 °F 35% 30.11 in 10.0 mi West 13.8 mph - N/A   Clear
3:35 PM 71.6 °F - 41.0 °F 33% 30.11 in 10.0 mi West 13.8 mph - N/A   Clear
3:55 PM 71.6 °F - 39.2 °F 31% 30.11 in 10.0 mi West 12.7 mph 21.9 mph N/A   Clear
4:15 PM 71.6 °F - 42.8 °F 35% 30.10 in 10.0 mi West 13.8 mph 18.4 mph N/A   Clear
4:35 PM 71.6 °F - 41.0 °F 33% 30.10 in 10.0 mi West 11.5 mph - N/A   Clear
4:55 PM 73.4 °F - 39.2 °F 29% 30.09 in 10.0 mi West 10.4 mph - N/A   Clear
5:35 PM 73.4 °F - 42.8 °F 33% 30.08 in 10.0 mi West 6.9 mph - N/A   Clear
5:55 PM 75.2 °F - 39.2 °F 27% 30.07 in 10.0 mi SW 8.1 mph - N/A   Clear
6:15 PM 75.2 °F - 35.6 °F 24% 30.06 in 10.0 mi WSW 11.5 mph - N/A   Clear
6:35 PM 75.2 °F - 37.4 °F 25% 30.06 in 10.0 mi SW 10.4 mph - N/A   Clear
6:55 PM 75.2 °F - 37.4 °F 25% 30.05 in 10.0 mi SSW 9.2 mph - N/A   Clear
7:15 PM 73.4 °F - 35.6 °F 25% 30.05 in 10.0 mi South 8.1 mph - N/A   Clear
7:35 PM 73.4 °F - 35.6 °F 25% 30.05 in 10.0 mi SSW 6.9 mph - N/A   Clear
7:55 PM 73.4 °F - 35.6 °F 25% 30.04 in 10.0 mi SW 6.9 mph - N/A   Clear
8:15 PM 71.6 °F - 35.6 °F 27% 30.04 in 10.0 mi SSW 6.9 mph - N/A   Clear
8:35 PM 71.6 °F - 35.6 °F 27% 30.04 in 9.0 mi SW 3.5 mph - N/A   Clear
8:55 PM 71.6 °F - 37.4 °F 29% 30.03 in 10.0 mi Calm Calm - N/A   Clear
9:15 PM 66.2 °F - 39.2 °F 37% 30.03 in 10.0 mi Calm Calm - N/A   Clear
9:35 PM 60.8 °F - 42.8 °F 52% 30.03 in 10.0 mi Calm Calm - N/A   Clear
9:55 PM 59.0 °F - 42.8 °F 55% 30.04 in 10.0 mi Calm Calm - N/A   Clear
10:15 PM 57.2 °F - 42.8 °F 59% 30.04 in 10.0 mi Calm Calm - N/A   Clear
10:35 PM 55.4 °F - 44.6 °F 67% 30.04 in 10.0 mi Calm Calm - N/A   Clear
10:55 PM 55.4 °F - 42.8 °F 63% 30.04 in 10.0 mi Calm Calm - N/A   Clear
11:15 PM 53.6 °F - 41.0 °F 62% 30.04 in 10.0 mi ESE 3.5 mph - N/A   Clear
11:35 PM 53.6 °F - 41.0 °F 62% 30.04 in 10.0 mi East 3.5 mph - N/A   Clear
11:55 PM 51.8 °F - 42.8 °F 71% 30.04 in 10.0 mi East 3.5 mph - N/A   Clear